GW0707 Weather Reports


time (UTC)temp
C
wind
direction
speed
KPH
gust
KPH
rain 1hr
cm
rain 24hr
cm
rain mn
cm
humidity
%
barometer
mb
20260507072014 13 343 1.6 3.2 0.00 0.00 0.00 84 1009.9
20260507070903 12 9 0.0 3.2 0.00 0.00 0.00 84 1010.2
20260507070214 12 304 0.0 3.2 0.00 0.00 0.00 84 1010.0
20260507065403 12 295 0.0 3.2 0.00 0.00 0.00 85 1010.1
20260507064504 12 341 1.6 4.8 0.00 0.00 0.00 84 1010.1
20260507063814 12 346 3.2 6.4 0.00 0.00 0.00 85 1009.8
20260507062703 11 332 3.2 6.4 0.00 0.00 0.00 86 1009.7
20260507061803 11 310 4.8 9.7 0.00 0.00 0.00 86 1009.7
20260507060903 11 292 4.8 9.7 0.00 0.00 0.00 86 1009.8
20260507060004 11 321 1.6 4.8 0.00 0.00 0.00 86 1009.4
20260507055403 11 308 3.2 9.7 0.00 0.00 0.00 86 1009.3
20260507054713 11 309 4.8 9.7 0.00 0.00 0.00 86 1009.4
20260507053603 11 315 6.4 11.3 0.00 0.00 0.00 85 1009.3
20260507052703 11 314 6.4 11.3 0.00 0.00 0.00 85 1009.2
20260507051803 11 330 4.8 9.7 0.00 0.00 0.00 85 1009.3
20260507050903 11 326 3.2 6.4 0.00 0.00 0.00 85 1009.2
20260507050003 11 332 3.2 12.9 0.00 0.00 0.00 85 1009.5
20260507045403 11 323 4.8 11.3 0.00 0.00 0.00 85 1009.4
20260507044503 12 326 4.8 11.3 0.00 0.00 0.00 84 1009.4
20260507043603 12 338 4.8 14.5 0.00 0.00 0.00 83 1009.4
20260507042703 12 342 4.8 11.3 0.00 0.00 0.00 83 1009.5
20260507041803 12 348 4.8 11.3 0.00 0.00 0.00 83 1009.6
20260507040903 12 358 4.8 11.3 0.00 0.00 0.00 83 1009.6
20260507040004 12 31 4.8 14.5 0.00 0.00 0.00 83 1009.8
20260507035403 12 60 4.8 11.3 0.00 0.00 0.00 83 1009.9
20260507034503 12 122 3.2 11.3 0.00 0.00 0.00 84 1010.0
20260507033813 12 189 1.6 3.2 0.00 0.00 0.00 84 1010.1
20260507032913 12 155 0.0 3.2 0.00 0.00 0.00 83 1010.1
20260507031803 12 53 4.8 11.3 0.00 0.00 0.00 83 1010.0
20260507030903 12 53 4.8 11.3 0.00 0.00 0.00 82 1009.9
20260507030003 12 31 3.2 12.9 0.00 0.00 0.00 83 1009.8
20260507025403 12 358 4.8 16.1 0.00 0.00 0.00 83 1009.9
20260507024503 12 340 3.2 12.9 0.00 0.00 0.00 82 1009.9
20260507023603 12 356 4.8 12.9 0.00 0.00 0.00 82 1009.9
20260507022914 12 354 3.2 9.7 0.00 0.00 0.00 82 1010.2
20260507021803 12 13 3.2 12.9 0.00 0.00 0.00 82 1010.3
20260507021113 12 16 3.2 16.1 0.00 0.00 0.00 82 1010.3
20260507020003 12 356 3.2 9.7 0.00 0.00 0.00 81 1010.1
20260507015403 12 342 3.2 12.9 0.00 0.00 0.00 81 1010.2
20260507014503 12 329 3.2 12.9 0.00 0.00 0.00 81 1010.4
20260507013814 13 344 4.8 14.5 0.00 0.00 0.00 80 1010.4
20260507012914 13 357 3.2 14.5 0.00 0.00 0.00 80 1010.3
20260507012013 13 353 3.2 12.9 0.00 0.00 0.00 80 1010.3
20260507010903 13 314 3.2 9.7 0.00 0.00 0.00 80 1010.3
20260507010004 13 335 3.2 9.7 0.00 0.00 0.00 79 1010.3
20260507005403 13 354 4.8 17.7 0.00 0.00 0.00 80 1010.6
20260507004713 13 350 6.4 17.7 0.00 0.00 0.00 79 1010.5
20260507003603 13 8 4.8 14.5 0.00 0.00 0.00 79 1010.5
20260507002703 13 354 6.4 24.1 0.00 0.00 0.00 79 1010.5
20260507001803 13 19 3.2 9.7 0.00 0.00 0.00 79 1010.5
20260507000903 13 23 3.2 11.3 0.00 0.00 0.00 79 1010.7
20260507000004 13 4 6.4 16.1 0.00 0.00 0.00 79 1010.6
20260506235403 13 354 4.8 16.1 0.00 0.00 0.00 79 1010.7
20260506234504 13 356 4.8 14.5 0.00 0.00 0.00 79 1010.8
20260506233603 13 349 4.8 12.9 0.00 0.00 0.00 79 1010.8
20260506232703 13 3 1.6 9.7 0.00 0.00 0.00 79 1010.8
20260506232012 13 314 1.6 4.8 0.00 0.00 0.00 80 1010.7
20260506230903 13 340 3.2 14.5 0.00 0.00 0.00 79 1010.9
20260506230011 13 316 4.8 14.5 0.00 0.00 0.00 79 1010.8
20260506225403 13 32 3.2 9.7 0.00 0.00 0.00 79 1010.8
20260506224503 13 5 1.6 6.4 0.00 0.00 0.00 80 1010.8
20260506223603 13 345 1.6 4.8 0.00 0.00 0.00 79 1010.9
20260506222703 13 121 1.6 6.4 0.00 0.00 0.00 79 1010.9
20260506221803 13 329 0.0 3.2 0.00 0.00 0.00 79 1010.8
20260506220903 13 63 1.6 6.4 0.00 0.00 0.00 78 1011.2
20260506220004 13 293 0.0 3.2 0.00 0.00 0.00 78 1011.1
20260506215403 14 188 0.0 3.2 0.00 0.00 0.00 78 1011.2
20260506214714 14 178 1.6 4.8 0.00 0.00 0.00 77 1011.0
20260506213603 14 287 1.6 6.4 0.00 0.00 0.00 77 1011.1
20260506212703 14 11 3.2 20.9 0.00 0.00 0.00 77 1011.1
20260506211803 15 164 3.2 6.4 0.00 0.00 0.00 76 1011.0
20260506210903 14 140 3.2 9.7 0.00 0.00 0.00 77 1011.0
20260506210004 14 193 3.2 6.4 0.00 0.00 0.00 77 1011.1
20260506205403 15 264 3.2 12.9 0.00 0.00 0.00 76 1011.0
20260506204503 15 4 3.2 11.3 0.00 0.00 0.00 76 1011.0
20260506203603 15 281 1.6 6.4 0.00 0.00 0.00 76 1010.9
20260506202703 15 348 1.6 9.7 0.00 0.00 0.00 76 1010.8
20260506202013 15 353 1.6 9.7 0.00 0.00 0.00 75 1010.7
20260506200903 15 332 1.6 11.3 0.00 0.00 0.00 75 1011.0
20260506200004 15 24 3.2 14.5 0.00 0.00 0.00 74 1010.7
20260506195403 15 22 4.8 16.1 0.00 0.00 0.00 74 1010.6
20260506194713 15 36 6.4 16.1 0.00 0.00 0.00 73 1010.8
20260506193603 15 21 4.8 24.1 0.00 0.00 0.00 72 1010.6
20260506192703 16 10 4.8 14.5 0.00 0.00 0.00 72 1010.3
20260506192013 16 354 3.2 14.5 0.00 0.00 0.00 71 1010.3
20260506190903 16 9 6.4 24.1 0.00 0.00 0.00 71 1010.4
20260506190004 16 3 8.0 17.7 0.00 0.00 0.00 71 1010.3
20260506185613 16 5 8.0 17.7 0.00 0.00 0.00 70 1010.2
20260506184503 16 4 8.0 25.7 0.00 0.00 0.00 68 1010.1
20260506183604 17 7 6.4 20.9 0.00 0.00 0.00 68 1010.2
20260506182913 17 11 4.8 17.7 0.00 0.00 0.00 67 1010.4
20260506181803 17 338 8.0 25.7 0.00 0.00 0.00 67 1010.2
20260506180903 17 18 8.0 25.7 0.00 0.00 0.00 65 1010.3
20260506180004 17 8 11.3 20.9 0.00 0.00 0.00 64 1010.2
20260506175403 17 18 9.7 22.5 0.00 0.00 0.00 63 1010.3
20260506174504 17 20 11.3 25.7 0.00 0.00 0.00 62 1010.3
20260506173814 18 32 11.3 30.6 0.00 0.00 0.00 62 1010.4
20260506172708 18 22 9.7 22.5 0.00 0.00 0.00 62 1010.3
20260506171803 18 359 8.0 22.5 0.00 0.00 0.00 63 1010.5
20260506170903 19 339 9.7 29.0 0.00 0.00 0.00 62 1010.4
20260506170003 19 354 14.5 29.0 0.00 0.00 0.00 61 1010.6
20260506165403 20 354 11.3 29.0 0.00 0.00 0.00 60 1010.6
20260506164503 22 360 11.3 37.0 0.00 0.00 0.00 53 1010.4
20260506163603 26 358 14.5 37.0 0.00 0.00 0.00 45 1010.7
20260506162703 27 342 12.9 29.0 0.00 0.00 0.00 44 1010.6
20260506161804 27 348 11.3 29.0 0.00 0.00 0.00 46 1010.6
20260506160903 25 19 14.5 30.6 0.00 0.00 0.00 48 1010.6
20260506160003 25 7 9.7 29.0 0.00 0.00 0.00 50 1010.6
20260506155403 24 352 9.7 29.0 0.00 0.00 0.00 53 1010.5
20260506154713 20 2 12.9 29.0 0.00 0.00 0.00 59 1010.6
20260506153813 20 348 12.9 27.4 0.00 0.00 0.00 59 1010.4
20260506152703 20 5 12.9 33.8 0.00 0.00 0.00 61 1010.6
20260506151803 20 9 12.9 33.8 0.00 0.00 0.00 61 1010.9
20260506150904 20 359 12.9 29.0 0.00 0.00 0.00 62 1011.1
20260506150003 20 355 12.9 35.4 0.00 0.00 0.00 60 1010.9
20260506145614 20 3 12.9 35.4 0.00 0.00 0.00 61 1011.0
20260506144503 21 341 12.9 27.4 0.00 0.00 0.00 59 1011.0
20260506143603 20 5 14.5 33.8 0.00 0.00 0.00 62 1011.3
20260506142703 20 13 14.5 30.6 0.00 0.00 0.00 61 1011.2
20260506141804 20 9 14.5 25.7 0.00 0.00 0.00 61 1011.4
20260506140903 20 357 14.5 33.8 0.00 0.00 0.00 61 1011.5
20260506140003 20 4 12.9 33.8 0.00 0.00 0.00 62 1011.5
20260506135403 20 358 16.1 33.8 0.00 0.00 0.00 61 1011.5
20260506134503 20 6 11.3 25.7 0.00 0.00 0.00 61 1011.6
20260506133603 21 360 11.3 30.6 0.00 0.00 0.00 60 1011.6
20260506132704 20 339 14.5 33.8 0.00 0.00 0.00 62 1011.9
20260506131803 20 5 12.9 25.7 0.00 0.00 0.00 62 1011.8
20260506130904 20 9 14.5 30.6 0.00 0.00 0.00 63 1011.9
20260506130004 19 360 14.5 33.8 0.00 0.00 0.00 63 1012.0
20260506125403 19 1 16.1 33.8 0.00 0.00 0.00 62 1012.1
20260506124503 19 359 9.7 25.7 0.00 0.00 0.00 62 1012.1
20260506123603 20 353 9.7 24.1 0.00 0.00 0.00 64 1012.4
20260506122703 19 7 12.9 35.4 0.00 0.00 0.00 64 1012.2
20260506121803 18 356 12.9 29.0 0.00 0.00 0.00 65 1012.4
20260506120903 18 335 14.5 33.8 0.00 0.00 0.00 66 1012.7
20260506120004 18 3 12.9 33.8 0.00 0.00 0.00 65 1012.5
20260506115403 18 4 12.9 25.7 0.00 0.00 0.00 65 1012.9
20260506114714 18 10 11.3 25.7 0.00 0.00 0.00 66 1012.8
20260506113603 18 9 9.7 24.1 0.00 0.00 0.00 66 1012.9
20260506112703 18 334 9.7 17.7 0.00 0.00 0.00 66 1013.1
20260506111803 18 347 9.7 22.5 0.00 0.00 0.00 66 1013.0
20260506110903 18 355 9.7 20.9 0.00 0.00 0.00 68 1013.0
20260506110003 17 336 11.3 22.5 0.00 0.00 0.00 69 1013.2
20260506105403 17 327 9.7 22.5 0.00 0.00 0.00 71 1013.2
20260506104503 17 335 11.3 22.5 0.00 0.00 0.00 70 1013.2
20260506103603 17 350 11.3 22.5 0.00 0.00 0.00 71 1013.1
20260506102703 16 343 9.7 24.1 0.00 0.00 0.00 71 1013.2
20260506101803 17 2 9.7 22.5 0.00 0.00 0.00 69 1013.2
20260506100904 17 359 11.3 29.0 0.00 0.00 0.00 67 1013.2
20260506100214 17 24 8.0 22.5 0.00 0.00 0.00 68 1013.2
20260506095403 16 19 11.3 30.6 0.00 0.00 0.00 68 1013.4
20260506094504 16 15 6.4 24.1 0.00 0.00 0.00 69 1013.3
20260506093603 16 16 8.0 24.1 0.00 0.00 0.00 69 1013.3
20260506092703 15 30 8.0 25.7 0.00 0.00 0.00 71 1013.6
20260506091803 15 18 11.3 29.0 0.00 0.00 0.00 72 1013.5
20260506090903 15 360 11.3 25.7 0.00 0.00 0.00 74 1013.5
20260506090003 15 6 14.5 38.6 0.00 0.00 0.00 76 1013.5
20260506085403 15 7 12.9 37.0 0.00 0.00 0.00 76 1013.3
20260506084503 15 13 11.3 37.0 0.00 0.00 0.00 76 1013.5
20260506083604 15 18 9.7 29.0 0.00 0.00 0.00 78 1013.5
20260506082703 14 24 9.7 24.1 0.00 0.00 0.00 79 1013.7
20260506081803 14 8 11.3 35.4 0.00 0.00 0.00 80 1013.9
20260506080903 13 360 9.7 27.4 0.00 0.00 0.00 80 1013.7
20260506072703 12 317 4.8 14.5 0.00 0.00 0.00 88 1013.9